[ ตารางข้อมูล ] [ Min-Max ] [ วันนี้2 ] [ วันนี้4 ] [ เทียบ-A 3วัน ] [ เทียบ-B 4วัน ]   

วันนี้4   [ ◀ ช่วงเก่ากว่า ] [ ช่วงที่ 20 ] [ ช่วงใหม่กว่า ▶ ] [ ล่าสุด ]    [ 3 ชั่วโมง ] [ 6 ชั่วโมง ] [ 12 ชั่วโมง ] [ 24 ชั่วโมง ]   วันนี้4

อุณภูมิในตู้ Knockdown4529  ราย 6 ชั่วโมง  ที่วัดได้ ในช่วงวันเวลา 26/08/2026 (06:57) ถึง 26/08/2026 (12:57) 
ความชื้นในตู้ Knockdown4529  ราย 6 ชั่วโมง  ที่วัดได้ ในช่วงวันเวลา 26/08/2026 (06:57) ถึง 26/08/2026 (12:57) 
การใช้ไฟฟ้าในตู้ Knockdown4529  ราย 6 ชั่วโมง  ที่วัดได้ ในช่วงวันเวลา 26/08/2026 (06:57) ถึง 26/08/2026 (12:57) 

  DS18B20SHTC3PZEM-004TWiFi 
IDDate d/m/Y & Timedata1
สูง
data2
ต่ำ
data3
นอก
temp
pcb
hum
pcb
VoltAmpWattrssiTime
 16164  26/08/2026 12:56:07  33.9  31.8  35.4  34.5  60.5  236.0  0.04  4.6  -81  12:56 
 16163  26/08/2026 12:51:23  33.8  31.7  35.3  34.6  60.6  235.8  0.04  4.5  -82  12:51 
 16162  26/08/2026 12:46:38  33.8  31.6  35.2  34.5  60.5  236.0  0.04  4.5  -83  12:46 
 16161  26/08/2026 12:41:55  33.7  31.6  35.4  34.2  60.5  235.4  0.04  4.5  -82  12:41 
 16160  26/08/2026 12:37:11  33.6  31.5  35.4  34.3  60.6  236.5  0.04  4.6  -81  12:37 
 16159  26/08/2026 12:32:27  33.6  31.4  35.4  34.3  60.6  236.8  0.04  4.5  -79  12:32 
 16158  26/08/2026 12:27:44  33.5  31.4  35.2  34.1  60.4  236.3  0.04  4.5  -87  12:27 
 16157  26/08/2026 12:23:00  33.4  31.3  34.9  33.9  60.5  236.3  0.04  4.5  -79  12:23 
 16156  26/08/2026 12:18:15  33.4  31.2  34.9  34.0  60.6  236.2  0.04  4.6  -79  12:18 
 16155  26/08/2026 12:13:31  33.2  31.2  34.7  33.9  60.6  236.6  0.03  4.6  -82  12:13 
 16154  26/08/2026 12:08:47  33.2  31.1  34.7  33.9  60.5  236.6  0.03  4.6  -82  12:08 
 16153  26/08/2026 12:04:03  33.1  31.1  35.0  33.6  60.4  236.9  0.04  4.5  -85  12:04 
 16152  26/08/2026 11:59:19  33.0  31.0  34.9  33.8  60.8  236.4  0.04  4.6  -82  11:59 
 16151  26/08/2026 11:54:36  32.9  30.9  34.4  33.6  60.6  235.9  0.04  4.5  -80  11:54 
 16150  26/08/2026 11:49:51  32.8  30.9  34.4  33.5  60.7  236.3  0.04  4.6  -85  11:49 
 16149  26/08/2026 11:45:08  32.8  30.8  34.2  33.6  60.6  235.7  0.03  4.5  -79  11:45 
 16148  26/08/2026 11:40:23  32.7  30.8  34.2  33.5  60.5  235.2  0.03  4.5  -82  11:40 
 16147  26/08/2026 11:35:40  32.6  30.7  34.0  33.3  60.9  235.6  0.03  4.5  -90  11:35 
 16146  26/08/2026 11:30:53  32.6  30.6  33.9  33.2  60.6  235.4  0.03  4.5  -89  11:30 
 16145  26/08/2026 11:26:10  32.5  30.6  33.9  33.3  60.8  235.2  0.03  4.5  -84  11:26 
 16144  26/08/2026 11:21:26  32.4  30.5  34.1  33.1  60.8  235.1  0.03  4.5  -92  11:21 
 16143  26/08/2026 11:16:39  32.2  30.4  34.0  33.0  60.9  235.5  0.04  4.5  -92  11:16 
 16142  26/08/2026 11:11:56  32.2  30.3  34.0  32.8  61.1  234.7  0.03  4.5  -90  11:11 
 16141  26/08/2026 11:07:10  32.1  30.2  33.7  33.0  60.6  235.2  0.03  4.5  -92  11:07 

Data every 5 minute.


ใช้เวลาประมวลผล 0.05863 วินาที